GW1213 Weather Reports


Display with metric or nautical units.
time (UTC)temp
F
wind
direction
speed
MPH
gust
MPH
rain 1hr
in
rain 24hr
in
rain mn
in
humidity
%
barometer
mb
20221126222038 54 0 0.0 1.0 0.00 0.00 0.00 47 1017.5
20221126221548 55 0 0.0 1.0 0.00 0.00 0.00 43 1017.5
20221126221034 56 0 0.0 1.0 0.00 0.00 0.00 40 1017.5
20221126220536 57 0 0.0 0.0 0.00 0.00 0.00 37 1017.5
20221126220056 57 0 0.0 0.0 0.00 0.00 0.00 34 1017.4
20221126215536 58 0 0.0 1.0 0.00 0.00 0.00 33 1017.4
20221126215036 59 0 0.0 1.0 0.00 0.00 0.00 33 1017.4
20221126214602 59 0 0.0 1.0 0.00 0.00 0.00 33 1017.4
20221126214036 60 0 0.0 1.0 0.00 0.00 0.00 30 1017.5
20221126213535 60 0 0.0 2.0 0.00 0.00 0.00 31 1017.5
20221126213059 61 0 0.0 2.0 0.00 0.00 0.00 29 1017.6
20221126212537 61 0 0.0 3.0 0.00 0.00 0.00 29 1017.8
20221126212036 61 209 0.0 3.0 0.00 0.00 0.00 29 1017.6
20221126211611 62 0 0.0 2.0 0.00 0.00 0.00 29 1017.6
20221126211035 62 255 0.0 4.0 0.00 0.00 0.00 28 1017.6
20221126210536 62 212 1.0 4.0 0.00 0.00 0.00 28 1017.5
20221126210058 62 0 1.0 4.0 0.00 0.00 0.00 28 1017.5
20221126205538 62 0 0.0 4.0 0.00 0.00 0.00 27 1017.5
20221126205036 62 234 1.0 4.0 0.00 0.00 0.00 27 1017.7
20221126204547 62 0 0.0 4.0 0.00 0.00 0.00 28 1017.8
20221126204037 62 266 1.0 4.0 0.00 0.00 0.00 28 1018.0
20221126203537 62 0 0.0 9.0 0.00 0.00 0.00 29 1018.0
20221126203109 62 212 2.0 9.0 0.00 0.00 0.00 28 1018.1
20221126202535 62 278 1.0 9.0 0.00 0.00 0.00 28 1018.1
20221126202036 62 272 2.0 9.0 0.00 0.00 0.00 28 1018.1
20221126201558 62 256 2.0 8.0 0.00 0.00 0.00 28 1018.1
20221126201035 63 242 2.0 6.0 0.00 0.00 0.00 28 1018.1
20221126200549 63 227 2.0 8.0 0.00 0.00 0.00 28 1018.2
20221126200051 63 165 3.0 8.0 0.00 0.00 0.00 28 1018.3
20221126195535 63 291 3.0 11.0 0.00 0.00 0.00 28 1018.3
20221126195035 63 228 5.0 11.0 0.00 0.00 0.00 28 1018.1
20221126194553 64 252 3.0 9.0 0.00 0.00 0.00 27 1017.9
20221126194036 64 248 1.0 6.0 0.00 0.00 0.00 28 1017.9
20221126193535 64 291 1.0 6.0 0.00 0.00 0.00 28 1018.0
20221126193107 64 257 3.0 7.0 0.00 0.00 0.00 28 1018.3
20221126192538 64 190 3.0 7.0 0.00 0.00 0.00 28 1018.4
20221126192035 64 258 2.0 7.0 0.00 0.00 0.00 29 1018.4
20221126191545 64 245 1.0 7.0 0.00 0.00 0.00 29 1018.5
20221126191036 63 245 2.0 8.0 0.00 0.00 0.00 29 1018.5
20221126190535 63 281 2.0 8.0 0.00 0.00 0.00 29 1018.8
20221126190100 63 174 3.0 8.0 0.00 0.00 0.00 29 1018.8
20221126185533 63 257 2.0 6.0 0.00 0.00 0.00 30 1018.8
20221126185035 63 201 2.0 6.0 0.00 0.00 0.00 30 1018.8
20221126184547 62 197 2.0 12.0 0.00 0.00 0.00 30 1018.8
20221126184039 62 281 4.0 12.0 0.00 0.00 0.00 29 1018.8
20221126183536 62 123 2.0 6.0 0.00 0.00 0.00 30 1018.7
20221126183053 62 261 3.0 9.0 0.00 0.00 0.00 29 1018.9
20221126182536 62 178 2.0 9.0 0.00 0.00 0.00 30 1018.9
20221126182040 62 279 4.0 9.0 0.00 0.00 0.00 29 1019.0
20221126181602 61 260 3.0 9.0 0.00 0.00 0.00 29 1019.0
20221126181034 62 240 4.0 12.0 0.00 0.00 0.00 29 1019.1
20221126180535 61 299 2.0 12.0 0.00 0.00 0.00 30 1019.2
20221126180044 61 281 4.0 11.0 0.00 0.00 0.00 28 1019.1
20221126175537 61 254 3.0 8.0 0.00 0.00 0.00 30 1019.1
20221126175037 61 273 3.0 8.0 0.00 0.00 0.00 29 1019.2
20221126174548 61 292 2.0 7.0 0.00 0.00 0.00 30 1019.3
20221126174036 61 292 2.0 7.0 0.00 0.00 0.00 32 1019.4
20221126173534 60 277 3.0 7.0 0.00 0.00 0.00 31 1019.6
20221126173057 60 229 3.0 7.0 0.00 0.00 0.00 31 1019.6
20221126172537 60 259 2.0 7.0 0.00 0.00 0.00 32 1019.7
20221126172035 60 286 2.0 8.0 0.00 0.00 0.00 32 1019.8
20221126171606 59 271 1.0 8.0 0.00 0.00 0.00 34 1020.0
20221126171035 59 229 2.0 6.0 0.00 0.00 0.00 35 1020.1
20221126170534 58 180 1.0 6.0 0.00 0.00 0.00 36 1020.2
20221126170054 58 230 3.0 8.0 0.00 0.00 0.00 36 1020.4
20221126165533 58 188 2.0 9.0 0.00 0.00 0.00 38 1020.5
20221126165036 58 242 2.0 9.0 0.00 0.00 0.00 38 1020.5
20221126164551 57 273 3.0 9.0 0.00 0.00 0.00 37 1020.7
20221126164036 57 248 3.0 9.0 0.00 0.00 0.00 39 1020.8
20221126163535 57 300 2.0 7.0 0.00 0.00 0.00 39 1020.9
20221126163043 56 241 1.0 8.0 0.00 0.00 0.00 40 1020.8
20221126162539 56 263 4.0 8.0 0.00 0.00 0.00 39 1020.9
20221126162033 56 192 4.0 10.0 0.00 0.00 0.00 39 1021.0
20221126161553 56 279 1.0 10.0 0.00 0.00 0.00 40 1021.1
20221126161036 56 283 2.0 6.0 0.00 0.00 0.00 41 1021.1
20221126160537 56 316 1.0 7.0 0.00 0.00 0.00 42 1021.3
20221126160042 55 279 3.0 7.0 0.00 0.00 0.00 42 1021.4
20221126155542 55 254 2.0 6.0 0.00 0.00 0.00 43 1021.5
20221126155037 55 0 3.0 7.0 0.00 0.00 0.00 43 1021.7
20221126154548 54 0 0.0 7.0 0.00 0.00 0.00 47 1021.7
20221126154034 54 160 2.0 6.0 0.00 0.00 0.00 46 1021.8
20221126153536 53 132 3.0 6.0 0.00 0.00 0.00 48 1021.8
20221126153055 52 178 2.0 6.0 0.00 0.00 0.00 50 1021.9
20221126152536 51 273 2.0 4.0 0.00 0.00 0.00 51 1021.9
20221126152036 50 257 1.0 4.0 0.00 0.00 0.00 56 1021.9
20221126151557 49 99 1.0 4.0 0.00 0.00 0.00 60 1021.9
20221126151034 49 83 2.0 4.0 0.00 0.00 0.00 61 1021.9
20221126150536 48 92 3.0 4.0 0.00 0.00 0.00 62 1021.9
20221126150104 47 99 2.0 4.0 0.00 0.00 0.00 65 1021.9
20221126145537 47 90 2.0 6.0 0.00 0.02 0.00 66 1021.9
20221126145037 46 93 3.0 6.0 0.00 0.02 0.00 67 1021.9
20221126144603 45 88 2.0 4.0 0.00 0.02 0.00 68 1021.8
20221126144037 45 88 2.0 4.0 0.00 0.02 0.00 67 1021.8
20221126143535 44 90 1.0 3.0 0.00 0.02 0.00 71 1021.8
20221126143056 44 88 1.0 3.0 0.00 0.02 0.00 70 1021.8
20221126142536 43 90 1.0 3.0 0.00 0.02 0.00 72 1021.7
20221126142035 43 86 1.0 3.0 0.00 0.02 0.00 72 1021.6
20221126141553 43 90 1.0 2.0 0.00 0.02 0.00 73 1021.6
20221126141036 42 115 0.0 1.0 0.00 0.02 0.00 74 1021.7
20221126140539 41 0 0.0 1.0 0.00 0.02 0.00 78 1021.8
20221126140111 40 0 0.0 1.0 0.00 0.02 0.00 79 1021.6
20221126135537 39 0 0.0 1.0 0.00 0.04 0.00 84 1021.6
20221126135039 37 0 0.0 1.0 0.00 0.04 0.00 87 1021.6
20221126134552 36 0 0.0 2.0 0.00 0.04 0.00 87 1021.5
20221126134038 36 0 0.0 2.0 0.00 0.04 0.00 90 1021.5
20221126133539 35 0 0.0 2.0 0.00 0.04 0.00 92 1021.4
20221126133048 34 0 0.0 2.0 0.00 0.04 0.00 92 1021.5
20221126132538 34 0 0.0 2.0 0.00 0.04 0.00 94 1021.5
20221126132038 33 157 0.0 1.0 0.00 0.04 0.00 94 1021.5
20221126131604 33 0 0.0 1.0 0.00 0.04 0.00 95 1021.4
20221126131039 33 0 0.0 1.0 0.00 0.04 0.00 95 1021.3
20221126130538 32 0 0.0 1.0 0.00 0.04 0.00 94 1021.4
20221126130115 32 0 0.0 1.0 0.00 0.04 0.00 95 1021.4
20221126125538 32 0 0.0 1.0 0.00 0.04 0.00 95 1021.4
20221126125038 32 0 0.0 1.0 0.00 0.04 0.00 95 1021.3
20221126124604 31 0 0.0 1.0 0.00 0.04 0.00 95 1021.3
20221126124039 31 0 0.0 0.0 0.00 0.04 0.00 94 1021.1
20221126123538 31 0 0.0 0.0 0.00 0.04 0.00 94 1021.1
20221126123049 31 0 0.0 0.0 0.00 0.04 0.00 94 1021.1
20221126122538 30 0 0.0 0.0 0.00 0.04 0.00 94 1021.1
20221126122038 30 0 0.0 0.0 0.00 0.04 0.00 94 1021.1
20221126121552 30 0 0.0 0.0 0.00 0.04 0.00 94 1021.1
20221126121037 30 0 0.0 0.0 0.00 0.04 0.00 94 1021.0
20221126120542 30 0 0.0 0.0 0.00 0.04 0.00 93 1021.0
20221126120056 30 0 0.0 0.0 0.00 0.04 0.00 93 1021.0
20221126115537 30 0 0.0 0.0 0.00 0.04 0.00 93 1020.8
20221126115038 30 0 0.0 0.0 0.00 0.04 0.00 93 1020.8
20221126114548 30 0 0.0 0.0 0.00 0.04 0.00 93 1020.7
20221126114040 31 0 0.0 0.0 0.00 0.04 0.00 93 1020.7
20221126113538 31 0 0.0 0.0 0.00 0.04 0.00 93 1020.7
20221126113050 31 0 0.0 0.0 0.00 0.04 0.00 93 1020.7
20221126112539 31 0 0.0 0.0 0.00 0.04 0.00 93 1020.7
20221126112036 31 0 0.0 1.0 0.00 0.04 0.00 92 1020.7
20221126111551 31 0 0.0 1.0 0.00 0.04 0.00 93 1020.7
20221126111039 31 0 0.0 1.0 0.00 0.04 0.00 93 1020.7
20221126110538 31 0 0.0 0.0 0.00 0.04 0.00 92 1020.6
20221126110057 31 0 0.0 3.0 0.00 0.04 0.00 92 1020.6
20221126105540 31 0 0.0 3.0 0.00 0.04 0.00 93 1020.5
20221126105037 32 204 0.0 3.0 0.00 0.04 0.00 92 1020.5
20221126104554 32 0 0.0 1.0 0.00 0.04 0.00 92 1020.5
20221126104036 32 0 0.0 1.0 0.00 0.04 0.00 92 1020.5
20221126103536 32 0 0.0 1.0 0.00 0.04 0.00 92 1020.4
20221126103040 32 0 0.0 2.0 0.00 0.04 0.00 92 1020.4
20221126102540 32 0 0.0 2.0 0.00 0.04 0.00 92 1020.4
20221126102036 32 0 0.0 1.0 0.00 0.04 0.00 92 1020.3
20221126101557 32 0 0.0 1.0 0.00 0.04 0.00 91 1020.2
20221126101037 32 0 0.0 1.0 0.00 0.04 0.00 91 1020.2
20221126100536 32 205 0.0 1.0 0.00 0.04 0.00 91 1020.1
20221126100052 32 0 0.0 2.0 0.00 0.04 0.00 91 1020.1
20221126095537 32 0 0.0 2.0 0.00 0.04 0.00 91 1020.1
20221126095034 33 205 0.0 2.0 0.00 0.04 0.00 91 1020.0
20221126094555 33 0 0.0 0.0 0.00 0.04 0.00 90 1019.9
20221126094034 33 0 0.0 0.0 0.00 0.04 0.00 90 1019.7
20221126093534 33 0 0.0 1.0 0.00 0.04 0.00 90 1019.7
20221126093042 33 0 0.0 1.0 0.00 0.04 0.00 90 1019.8
20221126092535 33 0 0.0 1.0 0.00 0.04 0.00 90 1019.9
20221126092035 33 0 0.0 1.0 0.00 0.04 0.00 89 1019.9
20221126091558 34 0 0.0 0.0 0.00 0.04 0.00 88 1019.8
20221126091035 34 0 0.0 1.0 0.00 0.04 0.00 87 1019.7
20221126090535 34 0 0.0 2.0 0.00 0.04 0.00 87 1019.8
20221126090114 34 0 0.0 2.0 0.00 0.04 0.00 88 1019.8
20221126085540 34 0 0.0 2.0 0.00 0.04 0.00 89 1019.7
20221126085036 34 120 0.0 1.0 0.00 0.04 0.00 89 1019.7
20221126084548 34 0 0.0 1.0 0.00 0.04 0.00 88 1019.7
20221126084035 34 0 0.0 1.0 0.00 0.04 0.00 88 1019.6
20221126083537 34 0 0.0 1.0 0.00 0.04 0.00 88 1019.7
20221126083049 34 0 0.0 2.0 0.00 0.04 0.00 87 1019.8
20221126082535 34 0 0.0 2.0 0.00 0.04 0.00 86 1019.7
20221126082035 34 70 0.0 1.0 0.00 0.04 0.00 87 1019.7
20221126081549 35 0 0.0 1.0 0.00 0.04 0.00 87 1019.6
20221126081038 35 0 0.0 1.0 0.00 0.04 0.00 87 1019.6
20221126080539 35 71 0.0 1.0 0.00 0.04 0.00 88 1019.5
20221126080051 34 71 0.0 1.0 0.00 0.04 0.00 88 1019.6
20221126075537 34 0 0.0 2.0 0.00 0.04 0.00 88 1019.6
20221126075036 34 0 0.0 3.0 0.00 0.04 0.00 88 1019.7
20221126074555 34 92 0.0 4.0 0.00 0.04 0.00 89 1019.8
20221126074037 34 105 0.0 4.0 0.00 0.04 0.00 88 1019.7
20221126073538 34 187 0.0 2.0 0.00 0.04 0.00 87 1019.3
20221126073102 34 0 0.0 2.0 0.00 0.04 0.00 87 1019.2
20221126072540 34 0 0.0 2.0 0.00 0.04 0.00 87 1019.2
20221126072037 34 0 1.0 2.0 0.00 0.04 0.00 88 1019.2
20221126071627 34 294 0.0 2.0 0.00 0.04 0.00 89 1019.1
20221126071038 35 0 0.0 1.0 0.00 0.04 0.00 88 1019.2
20221126070538 35 0 0.0 0.0 0.00 0.04 0.00 87 1019.2
20221126070050 35 0 0.0 0.0 0.00 0.04 0.00 87 1019.2
20221126065542 35 0 0.0 1.0 0.00 0.04 0.00 86 1019.1
20221126065041 35 0 0.0 1.0 0.00 0.04 0.00 86 1019.1
20221126064545 35 0 0.0 1.0 0.00 0.04 0.00 87 1019.1
20221126064038 35 0 0.0 1.0 0.00 0.04 0.00 86 1019.0
20221126063538 35 0 0.0 1.0 0.00 0.04 0.00 86 1019.1
20221126063056 36 0 0.0 1.0 0.00 0.04 0.00 86 1019.0
20221126062535 36 0 0.0 1.0 0.00 0.04 0.00 85 1019.1
20221126062037 36 0 0.0 1.0 0.00 0.04 0.00 85 1019.0
20221126061548 36 0 0.0 1.0 0.00 0.04 0.00 84 1019.0
20221126061038 36 0 0.0 1.0 0.00 0.04 0.00 84 1019.2
20221126060536 36 294 0.0 1.0 0.00 0.04 0.00 83 1019.3
20221126060104 37 0 0.0 1.0 0.00 0.04 0.00 83 1019.2
20221126055537 37 0 0.0 1.0 0.00 0.04 0.00 82 1019.1
20221126055037 37 0 0.0 1.0 0.00 0.04 0.00 82 1018.8
20221126054550 37 0 0.0 2.0 0.00 0.04 0.00 82 1018.7
20221126054037 38 0 0.0 2.0 0.00 0.04 0.00 81 1018.7
20221126053538 38 294 0.0 2.0 0.00 0.04 0.00 81 1018.8
20221126053051 38 0 0.0 2.0 0.00 0.04 0.00 80 1018.8
20221126052537 38 0 0.0 2.0 0.00 0.04 0.00 80 1018.8
20221126052038 38 0 0.0 1.0 0.00 0.04 0.00 80 1018.8
20221126051549 38 0 0.0 2.0 0.00 0.04 0.00 80 1018.7
20221126051038 38 0 0.0 2.0 0.00 0.04 0.00 80 1018.5
20221126050538 39 0 0.0 2.0 0.00 0.04 0.00 79 1018.4
20221126050112 39 0 0.0 2.0 0.00 0.04 0.00 78 1018.3
20221126045538 39 0 0.0 2.0 0.00 0.04 0.04 78 1018.3
20221126045037 39 0 0.0 2.0 0.00 0.04 0.04 79 1018.3
20221126044602 39 0 0.0 2.0 0.00 0.04 0.04 77 1018.3
20221126044036 40 123 0.0 2.0 0.00 0.04 0.04 77 1018.2
20221126043536 40 0 0.0 1.0 0.00 0.04 0.04 75 1018.0
20221126043102 40 0 0.0 1.0 0.00 0.04 0.04 74 1017.7
20221126042534 41 0 0.0 1.0 0.00 0.04 0.04 74 1017.5
20221126042039 41 253 0.0 1.0 0.00 0.04 0.04 72 1017.4
20221126041606 42 0 0.0 2.0 0.00 0.04 0.04 72 1017.4
20221126041036 42 0 0.0 2.0 0.00 0.04 0.04 68 1017.4
20221126040536 43 253 0.0 2.0 0.00 0.04 0.04 67 1017.5
20221126040042 43 0 0.0 1.0 0.00 0.04 0.04 66 1017.4
20221126035535 43 0 0.0 2.0 0.00 0.04 0.04 66 1017.4
20221126035036 44 0 0.0 2.0 0.00 0.04 0.04 65 1017.4
20221126034552 44 0 0.0 2.0 0.00 0.04 0.04 64 1017.3
20221126034036 43 0 0.0 2.0 0.00 0.04 0.04 64 1017.2
20221126033534 43 275 0.0 2.0 0.00 0.04 0.04 64 1017.1
20221126033050 43 0 0.0 2.0 0.00 0.04 0.04 64 1017.0
20221126032534 44 0 0.0 0.0 0.00 0.04 0.04 64 1017.0
20221126032034 45 0 0.0 0.0 0.00 0.04 0.04 63 1017.0
20221126031541 46 0 0.0 0.0 0.00 0.04 0.04 60 1017.1
20221126031035 46 0 0.0 0.0 0.00 0.04 0.04 58 1017.2
20221126030534 46 0 0.0 0.0 0.00 0.04 0.04 56 1017.3
20221126030053 47 0 0.0 0.0 0.00 0.04 0.04 56 1017.3
20221126025536 47 0 0.0 0.0 0.00 0.04 0.04 55 1017.2
20221126025035 48 0 0.0 0.0 0.00 0.04 0.04 54 1017.2
20221126024548 48 0 0.0 1.0 0.00 0.04 0.04 53 1017.2
20221126024036 49 0 0.0 1.0 0.00 0.04 0.04 52 1017.1
20221126023538 49 0 0.0 1.0 0.00 0.04 0.04 52 1017.0
20221126023053 50 290 0.0 1.0 0.00 0.04 0.04 51 1016.9
20221126022539 50 290 0.0 1.0 0.00 0.04 0.04 50 1016.8
20221126022035 50 0 0.0 2.0 0.00 0.04 0.04 49 1016.8
20221126021556 51 290 0.0 3.0 0.00 0.04 0.04 49 1016.8
20221126021035 51 0 0.0 3.0 0.00 0.04 0.04 49 1016.7
20221126020538 51 0 0.0 2.0 0.00 0.04 0.04 49 1016.7
20221126020052 51 0 1.0 3.0 0.00 0.04 0.04 49 1016.6
20221126015534 51 234 0.0 3.0 0.00 0.04 0.04 49 1016.6
20221126015037 51 0 0.0 3.0 0.00 0.04 0.04 50 1016.5
20221126014550 51 0 0.0 3.0 0.00 0.04 0.04 51 1016.5
20221126014037 51 0 0.0 3.0 0.00 0.04 0.04 50 1016.3
20221126013535 52 0 0.0 3.0 0.00 0.04 0.04 50 1016.2
20221126013054 52 275 1.0 7.0 0.00 0.04 0.04 49 1016.2
20221126012536 52 332 1.0 7.0 0.00 0.04 0.04 50 1016.0
20221126012036 52 298 1.0 5.0 0.00 0.04 0.04 49 1015.8
20221126011545 52 0 1.0 5.0 0.00 0.04 0.04 49 1015.8
20221126011036 51 250 1.0 5.0 0.00 0.04 0.04 50 1015.8
20221126010536 51 338 1.0 5.0 0.00 0.04 0.04 51 1015.6
20221126010049 50 300 1.0 5.0 0.00 0.04 0.04 53 1015.7
20221126005541 49 302 1.0 4.0 0.00 0.04 0.04 54 1015.7
20221126005039 48 281 0.0 3.0 0.00 0.04 0.04 57 1015.8
20221126004546 48 0 0.0 2.0 0.00 0.04 0.04 59 1016.0
20221126004036 48 0 0.0 2.0 0.00 0.04 0.04 61 1016.0
20221126003535 49 0 0.0 2.0 0.00 0.04 0.04 62 1015.7
20221126003052 50 0 0.0 2.0 0.00 0.04 0.04 59 1015.7
20221126002536 50 0 1.0 2.0 0.00 0.04 0.04 56 1015.7
20221126002036 50 273 0.0 2.0 0.00 0.04 0.04 56 1015.6
20221126001546 50 0 0.0 1.0 0.00 0.04 0.04 57 1015.7
20221126001036 51 0 0.0 1.0 0.00 0.04 0.04 57 1015.5
20221126000536 51 0 0.0 1.0 0.00 0.04 0.04 55 1015.5
20221126000049 51 0 0.0 1.0 0.00 0.04 0.04 55 1015.2
20221125235537 52 0 0.0 1.0 0.00 0.04 0.04 54 1015.0
20221125235037 52 0 0.0 0.0 0.00 0.04 0.04 54 1014.7
20221125234550 53 0 0.0 0.0 0.00 0.04 0.04 53 1014.6
20221125234036 53 0 0.0 1.0 0.00 0.04 0.04 52 1014.6
20221125233536 54 0 0.0 1.0 0.00 0.04 0.04 52 1014.6
20221125233045 54 0 0.0 2.0 0.00 0.04 0.04 51 1014.5
20221125232539 54 0 0.0 2.0 0.00 0.04 0.04 50 1014.4
20221125232039 54 0 1.0 2.0 0.00 0.04 0.04 50 1014.3
20221125231539 55 287 0.0 2.0 0.00 0.04 0.04 49 1014.3
20221125231035 55 0 0.0 2.0 0.00 0.04 0.04 49 1014.2
20221125230536 55 0 0.0 4.0 0.00 0.04 0.04 49 1014.3
20221125230057 55 0 0.0 4.0 0.00 0.04 0.04 48 1014.1
20221125225536 56 284 0.0 4.0 0.00 0.04 0.04 48 1014.0
20221125225036 56 0 1.0 4.0 0.00 0.04 0.04 49 1013.8
20221125224548 56 0 0.0 3.0 0.00 0.04 0.04 49 1013.8
20221125224036 55 306 1.0 3.0 0.00 0.04 0.04 50 1013.8
20221125223535 56 267 1.0 3.0 0.00 0.04 0.04 51 1013.7
20221125223040 56 292 0.0 3.0 0.00 0.04 0.04 51 1013.7
20221125222535 56 284 1.0 3.0 0.00 0.04 0.04 50 1013.6